| time (UTC) | temp F | wind direction | speed MPH | gust MPH | rain 1hr in | rain 24hr in | rain mn in | humidity % | barometer mb |
| 20260905182541 | 64 | 0 | 0.0 | 0.0 | 0.00 | 0.19 | 0.01 | 77 | 1017.4 |
| 20260905182038 | 65 | 0 | 0.0 | 0.0 | 0.00 | 0.19 | 0.01 | 77 | 1017.5 |
| 20260905181606 | 66 | 0 | 0.0 | 0.0 | 0.00 | 0.19 | 0.01 | 80 | 1017.5 |
| 20260905181041 | 65 | 0 | 0.0 | 0.0 | 0.00 | 0.19 | 0.01 | 83 | 1017.6 |
| 20260905180538 | 65 | 0 | 0.0 | 0.0 | 0.00 | 0.19 | 0.01 | 83 | 1017.6 |
| 20260905180053 | 64 | 0 | 0.0 | 0.0 | 0.00 | 0.19 | 0.01 | 81 | 1017.6 |
| 20260905175540 | 64 | 0 | 0.0 | 0.0 | 0.00 | 0.19 | 0.01 | 79 | 1017.6 |
| 20260905175038 | 63 | 0 | 0.0 | 1.0 | 0.00 | 0.19 | 0.01 | 84 | 1017.6 |
| 20260905174604 | 63 | 0 | 0.0 | 2.0 | 0.00 | 0.19 | 0.01 | 83 | 1017.5 |
| 20260905174038 | 62 | 0 | 0.0 | 3.0 | 0.00 | 0.19 | 0.01 | 82 | 1017.7 |
| 20260905173541 | 62 | 0 | 0.0 | 3.0 | 0.00 | 0.19 | 0.01 | 86 | 1017.6 |
| 20260905173112 | 61 | 0 | 1.0 | 2.0 | 0.00 | 0.19 | 0.01 | 86 | 1017.6 |
| 20260905172542 | 60 | 75 | 0.0 | 2.0 | 0.00 | 0.19 | 0.01 | 86 | 1017.7 |
| 20260905172039 | 60 | 0 | 0.0 | 4.0 | 0.00 | 0.19 | 0.01 | 89 | 1017.8 |
| 20260905171554 | 59 | 75 | 0.0 | 4.0 | 0.00 | 0.19 | 0.01 | 89 | 1017.7 |
| 20260905171040 | 59 | 0 | 0.0 | 4.0 | 0.00 | 0.19 | 0.01 | 93 | 1017.7 |
| 20260905170538 | 59 | 0 | 0.0 | 5.0 | 0.00 | 0.19 | 0.01 | 94 | 1017.7 |
| 20260905170052 | 58 | 93 | 1.0 | 5.0 | 0.00 | 0.19 | 0.01 | 94 | 1017.8 |
| 20260905165537 | 57 | 0 | 0.0 | 0.0 | 0.00 | 0.19 | 0.01 | 93 | 1017.7 |
| 20260905165038 | 56 | 0 | 0.0 | 0.0 | 0.00 | 0.19 | 0.01 | 93 | 1017.7 |
| 20260905164558 | 56 | 0 | 0.0 | 0.0 | 0.00 | 0.19 | 0.01 | 93 | 1017.7 |
| 20260905164039 | 56 | 0 | 0.0 | 0.0 | 0.00 | 0.19 | 0.01 | 93 | 1017.7 |
| 20260905163541 | 56 | 0 | 0.0 | 0.0 | 0.00 | 0.19 | 0.01 | 94 | 1017.6 |
| 20260905163103 | 56 | 0 | 0.0 | 0.0 | 0.00 | 0.19 | 0.01 | 94 | 1017.7 |
| 20260905162539 | 55 | 0 | 0.0 | 0.0 | 0.00 | 0.19 | 0.01 | 93 | 1017.6 |
| 20260905162038 | 54 | 0 | 0.0 | 0.0 | 0.00 | 0.19 | 0.01 | 93 | 1017.6 |
| 20260905161550 | 54 | 0 | 0.0 | 0.0 | 0.00 | 0.19 | 0.01 | 92 | 1017.7 |
| 20260905161037 | 54 | 0 | 0.0 | 0.0 | 0.00 | 0.19 | 0.01 | 92 | 1017.8 |
| 20260905160538 | 53 | 0 | 0.0 | 0.0 | 0.00 | 0.19 | 0.01 | 92 | 1017.8 |
| 20260905160059 | 53 | 0 | 0.0 | 0.0 | 0.00 | 0.19 | 0.01 | 92 | 1017.8 |
| 20260905155541 | 53 | 0 | 0.0 | 0.0 | 0.00 | 0.20 | 0.01 | 92 | 1017.7 |
| 20260905155040 | 54 | 0 | 0.0 | 0.0 | 0.00 | 0.20 | 0.01 | 92 | 1017.8 |
| 20260905154556 | 54 | 0 | 0.0 | 0.0 | 0.00 | 0.20 | 0.01 | 92 | 1017.8 |
| 20260905154038 | 54 | 0 | 0.0 | 0.0 | 0.00 | 0.20 | 0.01 | 93 | 1017.7 |
| 20260905153537 | 54 | 0 | 0.0 | 0.0 | 0.00 | 0.20 | 0.01 | 93 | 1017.8 |
| 20260905153054 | 53 | 0 | 0.0 | 0.0 | 0.00 | 0.20 | 0.01 | 93 | 1017.8 |
| 20260905152538 | 53 | 0 | 0.0 | 0.0 | 0.00 | 0.20 | 0.01 | 92 | 1017.8 |
| 20260905152038 | 53 | 0 | 0.0 | 0.0 | 0.00 | 0.20 | 0.01 | 93 | 1017.8 |
| 20260905151601 | 53 | 0 | 0.0 | 0.0 | 0.00 | 0.20 | 0.01 | 93 | 1017.8 |
| 20260905151043 | 53 | 0 | 0.0 | 0.0 | 0.00 | 0.20 | 0.01 | 93 | 1017.8 |
| 20260905150541 | 53 | 0 | 0.0 | 0.0 | 0.00 | 0.20 | 0.01 | 93 | 1017.8 |
| 20260905150057 | 53 | 0 | 0.0 | 0.0 | 0.00 | 0.20 | 0.01 | 93 | 1017.9 |
| 20260905145538 | 52 | 0 | 0.0 | 0.0 | 0.00 | 0.20 | 0.01 | 93 | 1017.9 |
| 20260905145038 | 52 | 0 | 0.0 | 0.0 | 0.00 | 0.20 | 0.01 | 93 | 1017.9 |
| 20260905144554 | 52 | 0 | 0.0 | 0.0 | 0.00 | 0.20 | 0.01 | 92 | 1017.9 |
| 20260905144037 | 52 | 0 | 0.0 | 0.0 | 0.00 | 0.20 | 0.01 | 92 | 1017.8 |
| 20260905143537 | 52 | 0 | 0.0 | 0.0 | 0.00 | 0.20 | 0.01 | 92 | 1017.9 |
| 20260905143108 | 52 | 0 | 0.0 | 0.0 | 0.00 | 0.20 | 0.01 | 92 | 1017.8 |
| 20260905142538 | 52 | 0 | 0.0 | 0.0 | 0.00 | 0.20 | 0.01 | 92 | 1017.8 |
| 20260905142040 | 52 | 0 | 0.0 | 0.0 | 0.00 | 0.20 | 0.01 | 92 | 1017.7 |
| 20260905141614 | 52 | 0 | 0.0 | 0.0 | 0.00 | 0.20 | 0.01 | 92 | 1017.7 |
| 20260905141042 | 52 | 0 | 0.0 | 0.0 | 0.00 | 0.20 | 0.01 | 92 | 1017.7 |
| 20260905140542 | 52 | 0 | 0.0 | 0.0 | 0.00 | 0.20 | 0.01 | 92 | 1017.7 |
| 20260905140103 | 52 | 0 | 0.0 | 0.0 | 0.00 | 0.20 | 0.01 | 92 | 1017.6 |
| 20260905135538 | 52 | 0 | 0.0 | 0.0 | 0.00 | 0.20 | 0.01 | 92 | 1017.5 |
| 20260905135038 | 52 | 0 | 0.0 | 0.0 | 0.00 | 0.20 | 0.01 | 92 | 1017.6 |
| 20260905134613 | 51 | 0 | 0.0 | 0.0 | 0.00 | 0.20 | 0.01 | 92 | 1017.5 |
| 20260905134039 | 51 | 0 | 0.0 | 0.0 | 0.00 | 0.20 | 0.01 | 92 | 1017.5 |
| 20260905133540 | 52 | 0 | 0.0 | 0.0 | 0.00 | 0.20 | 0.01 | 92 | 1017.5 |
| 20260905133103 | 52 | 0 | 0.0 | 0.0 | 0.00 | 0.20 | 0.01 | 92 | 1017.4 |
| 20260905132537 | 52 | 0 | 0.0 | 0.0 | 0.00 | 0.20 | 0.01 | 91 | 1017.4 |
| 20260905132038 | 52 | 0 | 0.0 | 0.0 | 0.00 | 0.20 | 0.01 | 92 | 1017.4 |
| 20260905131601 | 52 | 0 | 0.0 | 0.0 | 0.00 | 0.20 | 0.01 | 92 | 1017.4 |
| 20260905131038 | 52 | 0 | 0.0 | 0.0 | 0.00 | 0.20 | 0.01 | 92 | 1017.3 |
| 20260905130539 | 52 | 0 | 0.0 | 0.0 | 0.00 | 0.20 | 0.01 | 92 | 1017.3 |
| 20260905130059 | 52 | 0 | 0.0 | 0.0 | 0.00 | 0.20 | 0.01 | 92 | 1017.1 |
| 20260905125540 | 53 | 0 | 0.0 | 0.0 | 0.00 | 0.21 | 0.01 | 92 | 1017.2 |
| 20260905125039 | 53 | 0 | 0.0 | 0.0 | 0.00 | 0.21 | 0.01 | 92 | 1017.2 |
| 20260905124552 | 53 | 0 | 0.0 | 0.0 | 0.00 | 0.21 | 0.01 | 92 | 1017.3 |
| 20260905124038 | 53 | 0 | 0.0 | 0.0 | 0.00 | 0.21 | 0.01 | 92 | 1017.2 |
| 20260905123538 | 53 | 0 | 0.0 | 0.0 | 0.00 | 0.21 | 0.01 | 92 | 1017.3 |
| 20260905123103 | 53 | 0 | 0.0 | 0.0 | 0.00 | 0.21 | 0.01 | 92 | 1017.2 |
| 20260905122538 | 53 | 0 | 0.0 | 0.0 | 0.00 | 0.21 | 0.01 | 92 | 1017.2 |
| 20260905122038 | 52 | 0 | 0.0 | 0.0 | 0.00 | 0.21 | 0.01 | 92 | 1017.2 |
| 20260905121554 | 53 | 0 | 0.0 | 0.0 | 0.00 | 0.21 | 0.01 | 92 | 1017.3 |
| 20260905121038 | 52 | 0 | 0.0 | 0.0 | 0.00 | 0.21 | 0.01 | 92 | 1017.3 |
| 20260905120542 | 53 | 0 | 0.0 | 0.0 | 0.00 | 0.21 | 0.01 | 92 | 1017.2 |
| 20260905120105 | 53 | 0 | 0.0 | 0.0 | 0.01 | 0.21 | 0.01 | 92 | 1017.3 |
| 20260905115541 | 53 | 0 | 0.0 | 0.0 | 0.01 | 0.25 | 0.01 | 92 | 1017.2 |
| 20260905115041 | 53 | 0 | 0.0 | 0.0 | 0.01 | 0.25 | 0.01 | 92 | 1017.2 |
| 20260905114627 | 53 | 0 | 0.0 | 0.0 | 0.01 | 0.25 | 0.01 | 92 | 1017.2 |
| 20260905114039 | 53 | 0 | 0.0 | 0.0 | 0.01 | 0.25 | 0.01 | 92 | 1017.2 |
| 20260905113538 | 53 | 0 | 0.0 | 0.0 | 0.01 | 0.25 | 0.01 | 92 | 1017.1 |
| 20260905113102 | 53 | 0 | 0.0 | 0.0 | 0.01 | 0.25 | 0.01 | 92 | 1017.2 |
| 20260905112539 | 53 | 0 | 0.0 | 0.0 | 0.01 | 0.25 | 0.01 | 92 | 1017.2 |
| 20260905112039 | 53 | 0 | 0.0 | 0.0 | 0.01 | 0.25 | 0.01 | 92 | 1017.2 |
| 20260905111554 | 53 | 0 | 0.0 | 0.0 | 0.01 | 0.25 | 0.01 | 92 | 1017.1 |
| 20260905111040 | 53 | 0 | 0.0 | 0.0 | 0.01 | 0.25 | 0.01 | 92 | 1017.1 |
| 20260905110539 | 53 | 0 | 0.0 | 0.0 | 0.01 | 0.25 | 0.01 | 92 | 1017.1 |
| 20260905110101 | 53 | 0 | 0.0 | 0.0 | 0.00 | 0.24 | 0.00 | 92 | 1017.1 |
| 20260905105538 | 53 | 0 | 0.0 | 0.0 | 0.00 | 0.27 | 0.00 | 92 | 1017.2 |
| 20260905105038 | 53 | 0 | 0.0 | 0.0 | 0.00 | 0.27 | 0.00 | 92 | 1017.1 |
| 20260905104559 | 53 | 0 | 0.0 | 0.0 | 0.00 | 0.27 | 0.00 | 92 | 1017.1 |
| 20260905104038 | 53 | 0 | 0.0 | 0.0 | 0.00 | 0.27 | 0.00 | 92 | 1017.1 |
| 20260905103538 | 53 | 0 | 0.0 | 0.0 | 0.00 | 0.27 | 0.00 | 92 | 1017.1 |
| 20260905103053 | 52 | 0 | 0.0 | 0.0 | 0.00 | 0.27 | 0.00 | 92 | 1017.1 |
| 20260905102537 | 52 | 0 | 0.0 | 0.0 | 0.00 | 0.27 | 0.00 | 92 | 1017.1 |
| 20260905102038 | 52 | 0 | 0.0 | 0.0 | 0.00 | 0.27 | 0.00 | 92 | 1017.1 |
| 20260905101552 | 52 | 0 | 0.0 | 0.0 | 0.00 | 0.27 | 0.00 | 91 | 1017.2 |
| 20260905101037 | 52 | 0 | 0.0 | 0.0 | 0.00 | 0.27 | 0.00 | 91 | 1017.2 |
| 20260905100537 | 52 | 0 | 0.0 | 0.0 | 0.00 | 0.27 | 0.00 | 91 | 1017.2 |
| 20260905100114 | 52 | 0 | 0.0 | 0.0 | 0.00 | 0.27 | 0.00 | 91 | 1017.3 |
| 20260905095538 | 53 | 0 | 0.0 | 0.0 | 0.00 | 0.27 | 0.00 | 91 | 1017.3 |
| 20260905095041 | 53 | 0 | 0.0 | 0.0 | 0.00 | 0.27 | 0.00 | 91 | 1017.3 |
| 20260905094607 | 53 | 0 | 0.0 | 0.0 | 0.00 | 0.27 | 0.00 | 91 | 1017.3 |
| 20260905094037 | 53 | 0 | 0.0 | 0.0 | 0.00 | 0.27 | 0.00 | 91 | 1017.2 |
| 20260905093538 | 53 | 0 | 0.0 | 0.0 | 0.00 | 0.27 | 0.00 | 91 | 1017.1 |
| 20260905093057 | 53 | 0 | 0.0 | 0.0 | 0.00 | 0.27 | 0.00 | 91 | 1017.1 |
| 20260905092539 | 53 | 0 | 0.0 | 0.0 | 0.00 | 0.27 | 0.00 | 91 | 1017.1 |
| 20260905092037 | 53 | 0 | 0.0 | 0.0 | 0.00 | 0.27 | 0.00 | 91 | 1017.1 |
| 20260905091609 | 53 | 0 | 0.0 | 0.0 | 0.00 | 0.27 | 0.00 | 91 | 1017.0 |
| 20260905091039 | 53 | 0 | 0.0 | 0.0 | 0.00 | 0.27 | 0.00 | 91 | 1016.9 |
| 20260905090538 | 53 | 0 | 0.0 | 0.0 | 0.00 | 0.27 | 0.00 | 91 | 1016.9 |
| 20260905085538 | 53 | 0 | 0.0 | 0.0 | 0.00 | 0.27 | 0.00 | 91 | 1017.0 |
| 20260905085038 | 53 | 0 | 0.0 | 0.0 | 0.00 | 0.27 | 0.00 | 91 | 1017.1 |
| 20260905084555 | 53 | 0 | 0.0 | 0.0 | 0.00 | 0.27 | 0.00 | 91 | 1017.0 |
| 20260905084038 | 53 | 0 | 0.0 | 0.0 | 0.00 | 0.27 | 0.00 | 91 | 1017.0 |
| 20260905083540 | 54 | 0 | 0.0 | 0.0 | 0.00 | 0.27 | 0.00 | 91 | 1017.0 |
| 20260905083053 | 54 | 0 | 0.0 | 0.0 | 0.00 | 0.27 | 0.00 | 91 | 1016.9 |
| 20260905082538 | 54 | 0 | 0.0 | 0.0 | 0.00 | 0.27 | 0.00 | 91 | 1016.8 |
| 20260905082038 | 54 | 0 | 0.0 | 0.0 | 0.00 | 0.27 | 0.00 | 91 | 1016.8 |
| 20260905081603 | 54 | 0 | 0.0 | 0.0 | 0.00 | 0.27 | 0.00 | 91 | 1016.7 |
| 20260905081038 | 54 | 0 | 0.0 | 0.0 | 0.00 | 0.27 | 0.00 | 91 | 1016.7 |
| 20260905080538 | 54 | 0 | 0.0 | 0.0 | 0.00 | 0.27 | 0.00 | 92 | 1016.7 |
| 20260905080053 | 54 | 0 | 0.0 | 0.0 | 0.00 | 0.27 | 0.00 | 92 | 1016.8 |
| 20260905075538 | 54 | 0 | 0.0 | 0.0 | 0.00 | 0.27 | 0.00 | 92 | 1016.7 |
| 20260905075042 | 54 | 0 | 0.0 | 0.0 | 0.00 | 0.27 | 0.00 | 92 | 1016.8 |
| 20260905074558 | 54 | 0 | 0.0 | 0.0 | 0.00 | 0.27 | 0.00 | 92 | 1016.7 |
| 20260905074045 | 54 | 0 | 0.0 | 0.0 | 0.00 | 0.27 | 0.00 | 91 | 1016.7 |
| 20260905073538 | 54 | 0 | 0.0 | 0.0 | 0.00 | 0.27 | 0.00 | 91 | 1016.7 |
| 20260905073107 | 54 | 0 | 0.0 | 0.0 | 0.00 | 0.27 | 0.00 | 91 | 1016.7 |
| 20260905072537 | 54 | 0 | 0.0 | 0.0 | 0.00 | 0.27 | 0.00 | 91 | 1016.7 |
| 20260905072041 | 54 | 0 | 0.0 | 0.0 | 0.00 | 0.27 | 0.00 | 91 | 1016.7 |
| 20260905071557 | 54 | 0 | 0.0 | 0.0 | 0.00 | 0.27 | 0.00 | 91 | 1016.7 |
| 20260905071039 | 54 | 0 | 0.0 | 0.0 | 0.00 | 0.27 | 0.00 | 91 | 1016.7 |
| 20260905070537 | 54 | 0 | 0.0 | 0.0 | 0.00 | 0.27 | 0.00 | 91 | 1016.6 |
| 20260905070056 | 54 | 0 | 0.0 | 0.0 | 0.00 | 0.27 | 0.00 | 91 | 1016.6 |
| 20260905065539 | 54 | 0 | 0.0 | 0.0 | 0.00 | 0.27 | 0.27 | 91 | 1016.7 |
| 20260905065043 | 54 | 0 | 0.0 | 0.0 | 0.00 | 0.27 | 0.27 | 91 | 1016.6 |
| 20260905064615 | 54 | 0 | 0.0 | 0.0 | 0.00 | 0.27 | 0.27 | 91 | 1016.5 |
| 20260905064038 | 54 | 0 | 0.0 | 0.0 | 0.00 | 0.27 | 0.27 | 91 | 1016.4 |
| 20260905063538 | 54 | 0 | 0.0 | 0.0 | 0.00 | 0.27 | 0.27 | 91 | 1016.4 |
| 20260905063101 | 54 | 0 | 0.0 | 0.0 | 0.00 | 0.27 | 0.27 | 91 | 1016.4 |
| 20260905062538 | 54 | 0 | 0.0 | 0.0 | 0.00 | 0.27 | 0.27 | 91 | 1016.3 |
| 20260905062038 | 54 | 0 | 0.0 | 0.0 | 0.00 | 0.27 | 0.27 | 91 | 1016.3 |
| 20260905061619 | 54 | 0 | 0.0 | 0.0 | 0.00 | 0.27 | 0.27 | 91 | 1016.3 |
| 20260905061042 | 54 | 0 | 0.0 | 0.0 | 0.00 | 0.27 | 0.27 | 91 | 1016.2 |
| 20260905060540 | 54 | 0 | 0.0 | 0.0 | 0.00 | 0.27 | 0.27 | 91 | 1016.2 |
| 20260905060054 | 55 | 0 | 0.0 | 0.0 | 0.00 | 0.27 | 0.27 | 91 | 1016.2 |
| 20260905055539 | 55 | 0 | 0.0 | 0.0 | 0.00 | 0.28 | 0.27 | 91 | 1016.3 |
| 20260905055040 | 55 | 0 | 0.0 | 0.0 | 0.00 | 0.28 | 0.27 | 91 | 1016.3 |
| 20260905054605 | 55 | 0 | 0.0 | 0.0 | 0.00 | 0.28 | 0.27 | 91 | 1016.2 |
| 20260905054038 | 55 | 0 | 0.0 | 0.0 | 0.00 | 0.28 | 0.27 | 91 | 1016.2 |
| 20260905053541 | 55 | 0 | 0.0 | 0.0 | 0.00 | 0.28 | 0.27 | 91 | 1016.2 |
| 20260905053058 | 55 | 0 | 0.0 | 0.0 | 0.00 | 0.28 | 0.27 | 91 | 1016.2 |
| 20260905052539 | 55 | 0 | 0.0 | 0.0 | 0.00 | 0.28 | 0.27 | 91 | 1016.2 |
| 20260905052041 | 55 | 0 | 0.0 | 0.0 | 0.00 | 0.28 | 0.27 | 91 | 1016.2 |
| 20260905051609 | 55 | 0 | 0.0 | 0.0 | 0.00 | 0.28 | 0.27 | 91 | 1016.2 |
| 20260905051039 | 55 | 0 | 0.0 | 0.0 | 0.00 | 0.28 | 0.27 | 91 | 1016.1 |
| 20260905050539 | 54 | 0 | 0.0 | 0.0 | 0.00 | 0.28 | 0.27 | 91 | 1016.1 |
| 20260905050107 | 55 | 0 | 0.0 | 0.0 | 0.00 | 0.28 | 0.27 | 91 | 1016.1 |
| 20260905045540 | 55 | 0 | 0.0 | 0.0 | 0.00 | 0.28 | 0.27 | 91 | 1016.1 |
| 20260905045037 | 55 | 0 | 0.0 | 0.0 | 0.00 | 0.28 | 0.27 | 91 | 1016.1 |
| 20260905044604 | 55 | 0 | 0.0 | 0.0 | 0.00 | 0.28 | 0.27 | 91 | 1016.1 |
| 20260905044044 | 55 | 0 | 0.0 | 0.0 | 0.00 | 0.28 | 0.27 | 91 | 1016.2 |
| 20260905043544 | 54 | 0 | 0.0 | 0.0 | 0.00 | 0.28 | 0.27 | 90 | 1016.0 |
| 20260905043058 | 54 | 0 | 0.0 | 0.0 | 0.00 | 0.28 | 0.27 | 90 | 1016.1 |
| 20260905042544 | 54 | 0 | 0.0 | 0.0 | 0.00 | 0.28 | 0.27 | 90 | 1016.0 |
| 20260905042042 | 55 | 0 | 0.0 | 0.0 | 0.00 | 0.28 | 0.27 | 90 | 1016.1 |
| 20260905041556 | 55 | 0 | 0.0 | 0.0 | 0.00 | 0.28 | 0.27 | 90 | 1016.0 |
| 20260905041041 | 55 | 0 | 0.0 | 0.0 | 0.00 | 0.28 | 0.27 | 90 | 1015.9 |
| 20260905040540 | 55 | 0 | 0.0 | 0.0 | 0.00 | 0.28 | 0.27 | 90 | 1015.9 |
| 20260905040103 | 55 | 0 | 0.0 | 0.0 | 0.00 | 0.28 | 0.27 | 90 | 1015.9 |
| 20260905035538 | 55 | 0 | 0.0 | 0.0 | 0.00 | 0.28 | 0.27 | 90 | 1015.9 |
| 20260905035038 | 55 | 0 | 0.0 | 0.0 | 0.00 | 0.28 | 0.27 | 90 | 1015.8 |
| 20260905034611 | 55 | 0 | 0.0 | 0.0 | 0.00 | 0.28 | 0.27 | 90 | 1015.6 |
| 20260905034040 | 55 | 0 | 0.0 | 0.0 | 0.00 | 0.28 | 0.27 | 90 | 1015.7 |
| 20260905033538 | 55 | 0 | 0.0 | 0.0 | 0.00 | 0.28 | 0.27 | 90 | 1015.7 |
| 20260905033111 | 55 | 0 | 0.0 | 0.0 | 0.00 | 0.28 | 0.27 | 90 | 1015.6 |
| 20260905032539 | 55 | 0 | 0.0 | 0.0 | 0.00 | 0.28 | 0.27 | 90 | 1015.6 |
| 20260905032041 | 56 | 0 | 0.0 | 0.0 | 0.00 | 0.28 | 0.27 | 90 | 1015.4 |
| 20260905031615 | 56 | 0 | 0.0 | 0.0 | 0.00 | 0.28 | 0.27 | 90 | 1015.4 |
| 20260905031038 | 56 | 0 | 0.0 | 0.0 | 0.00 | 0.28 | 0.27 | 89 | 1015.4 |
| 20260905030538 | 56 | 0 | 0.0 | 0.0 | 0.00 | 0.28 | 0.27 | 90 | 1015.4 |
| 20260905030110 | 56 | 0 | 0.0 | 0.0 | 0.00 | 0.28 | 0.27 | 89 | 1015.3 |
| 20260905025540 | 56 | 0 | 0.0 | 0.0 | 0.00 | 0.28 | 0.27 | 89 | 1015.3 |
| 20260905025049 | 56 | 0 | 0.0 | 0.0 | 0.00 | 0.28 | 0.27 | 89 | 1015.3 |
| 20260905024602 | 56 | 0 | 0.0 | 0.0 | 0.00 | 0.28 | 0.27 | 89 | 1015.3 |
| 20260905024040 | 57 | 0 | 0.0 | 0.0 | 0.00 | 0.28 | 0.27 | 89 | 1015.3 |
| 20260905023546 | 57 | 0 | 0.0 | 0.0 | 0.00 | 0.28 | 0.27 | 89 | 1015.3 |
| 20260905023137 | 57 | 0 | 0.0 | 0.0 | 0.00 | 0.28 | 0.27 | 89 | 1015.3 |
| 20260905022542 | 57 | 0 | 0.0 | 0.0 | 0.00 | 0.28 | 0.27 | 89 | 1015.3 |
| 20260905022041 | 57 | 0 | 0.0 | 0.0 | 0.00 | 0.28 | 0.27 | 89 | 1015.2 |
| 20260905021602 | 57 | 0 | 0.0 | 0.0 | 0.00 | 0.28 | 0.27 | 89 | 1015.2 |
| 20260905021041 | 57 | 0 | 0.0 | 0.0 | 0.00 | 0.28 | 0.27 | 89 | 1015.0 |
| 20260905020538 | 57 | 0 | 0.0 | 0.0 | 0.00 | 0.28 | 0.27 | 89 | 1015.0 |
| 20260905020103 | 58 | 0 | 0.0 | 0.0 | 0.00 | 0.28 | 0.27 | 89 | 1015.0 |
| 20260905015541 | 58 | 0 | 0.0 | 0.0 | 0.00 | 0.28 | 0.27 | 89 | 1015.0 |
| 20260905015042 | 58 | 0 | 0.0 | 0.0 | 0.00 | 0.28 | 0.27 | 89 | 1014.9 |
| 20260905014556 | 58 | 0 | 0.0 | 0.0 | 0.00 | 0.28 | 0.27 | 89 | 1015.0 |
| 20260905014041 | 58 | 0 | 0.0 | 0.0 | 0.00 | 0.28 | 0.27 | 89 | 1015.0 |
| 20260905013537 | 58 | 0 | 0.0 | 0.0 | 0.00 | 0.28 | 0.27 | 89 | 1015.0 |
| 20260905013100 | 58 | 0 | 0.0 | 0.0 | 0.00 | 0.28 | 0.27 | 89 | 1015.0 |
| 20260905012541 | 58 | 0 | 0.0 | 0.0 | 0.00 | 0.28 | 0.27 | 90 | 1015.0 |
| 20260905012040 | 58 | 0 | 0.0 | 0.0 | 0.00 | 0.28 | 0.27 | 90 | 1014.9 |
| 20260905011600 | 58 | 0 | 0.0 | 0.0 | 0.00 | 0.28 | 0.27 | 90 | 1014.9 |
| 20260905011041 | 58 | 0 | 0.0 | 0.0 | 0.00 | 0.28 | 0.27 | 90 | 1014.7 |
| 20260905010541 | 58 | 0 | 0.0 | 0.0 | 0.00 | 0.28 | 0.27 | 90 | 1014.7 |
| 20260905010053 | 58 | 0 | 0.0 | 0.0 | 0.00 | 0.28 | 0.27 | 89 | 1014.7 |
| 20260905005543 | 58 | 0 | 0.0 | 0.0 | 0.00 | 0.30 | 0.27 | 89 | 1014.6 |
| 20260905005041 | 58 | 0 | 0.0 | 0.0 | 0.00 | 0.30 | 0.27 | 89 | 1014.6 |
| 20260905004554 | 58 | 0 | 0.0 | 0.0 | 0.00 | 0.30 | 0.27 | 89 | 1014.6 |
| 20260905004038 | 58 | 0 | 0.0 | 0.0 | 0.00 | 0.30 | 0.27 | 89 | 1014.6 |
| 20260905003543 | 58 | 0 | 0.0 | 0.0 | 0.00 | 0.30 | 0.27 | 88 | 1014.7 |
| 20260905003101 | 58 | 0 | 0.0 | 0.0 | 0.00 | 0.30 | 0.27 | 88 | 1014.7 |
| 20260905002540 | 58 | 0 | 0.0 | 0.0 | 0.00 | 0.30 | 0.27 | 88 | 1014.6 |
| 20260905002045 | 58 | 0 | 0.0 | 0.0 | 0.00 | 0.30 | 0.27 | 88 | 1014.7 |
| 20260905001606 | 58 | 0 | 0.0 | 0.0 | 0.00 | 0.30 | 0.27 | 89 | 1014.8 |
| 20260905001041 | 58 | 0 | 0.0 | 0.0 | 0.00 | 0.30 | 0.27 | 89 | 1014.8 |
| 20260905000543 | 59 | 0 | 0.0 | 0.0 | 0.00 | 0.30 | 0.27 | 89 | 1014.7 |
| 20260905000110 | 59 | 0 | 0.0 | 0.0 | 0.00 | 0.30 | 0.27 | 88 | 1014.7 |
| 20260904235538 | 59 | 0 | 0.0 | 0.0 | 0.00 | 0.36 | 0.27 | 89 | 1014.6 |
| 20260904235038 | 59 | 0 | 0.0 | 0.0 | 0.00 | 0.36 | 0.27 | 89 | 1014.5 |
| 20260904234553 | 59 | 0 | 0.0 | 3.0 | 0.00 | 0.36 | 0.27 | 89 | 1014.4 |
| 20260904234038 | 59 | 0 | 0.0 | 3.0 | 0.00 | 0.36 | 0.27 | 89 | 1014.5 |
| 20260904233541 | 59 | 0 | 0.0 | 3.0 | 0.00 | 0.36 | 0.27 | 90 | 1014.5 |
| 20260904233100 | 59 | 0 | 0.0 | 5.0 | 0.00 | 0.36 | 0.27 | 89 | 1014.5 |
| 20260904232541 | 58 | 63 | 0.0 | 5.0 | 0.00 | 0.36 | 0.27 | 89 | 1014.5 |
| 20260904232038 | 58 | 122 | 0.0 | 5.0 | 0.00 | 0.36 | 0.27 | 88 | 1014.5 |
| 20260904231602 | 58 | 0 | 1.0 | 5.0 | 0.01 | 0.36 | 0.27 | 89 | 1014.5 |
| 20260904231038 | 58 | 67 | 0.0 | 0.0 | 0.01 | 0.36 | 0.27 | 89 | 1014.4 |
| 20260904230538 | 59 | 0 | 0.0 | 0.0 | 0.02 | 0.36 | 0.27 | 89 | 1014.5 |
| 20260904230055 | 58 | 0 | 0.0 | 0.0 | 0.03 | 0.36 | 0.27 | 89 | 1014.5 |
| 20260904225540 | 59 | 0 | 0.0 | 0.0 | 0.03 | 0.36 | 0.27 | 90 | 1014.5 |
| 20260904225038 | 58 | 0 | 0.0 | 3.0 | 0.03 | 0.36 | 0.27 | 90 | 1014.5 |
| 20260904224559 | 58 | 0 | 0.0 | 3.0 | 0.03 | 0.36 | 0.27 | 90 | 1014.4 |
| 20260904224043 | 58 | 0 | 1.0 | 3.0 | 0.04 | 0.36 | 0.27 | 90 | 1014.5 |
| 20260904223540 | 58 | 0 | 0.0 | 4.0 | 0.04 | 0.36 | 0.27 | 90 | 1014.6 |
| 20260904223101 | 57 | 79 | 1.0 | 4.0 | 0.04 | 0.36 | 0.27 | 90 | 1014.6 |
| 20260904222540 | 57 | 0 | 0.0 | 2.0 | 0.05 | 0.36 | 0.27 | 89 | 1014.6 |
| 20260904222041 | 57 | 52 | 0.0 | 2.0 | 0.05 | 0.36 | 0.27 | 89 | 1014.6 |
| 20260904221555 | 56 | 0 | 0.0 | 0.0 | 0.04 | 0.35 | 0.26 | 88 | 1014.7 |
| 20260904221041 | 56 | 0 | 0.0 | 0.0 | 0.06 | 0.35 | 0.26 | 88 | 1014.7 |
| 20260904220542 | 57 | 0 | 0.0 | 0.0 | 0.07 | 0.34 | 0.25 | 88 | 1014.6 |
| 20260904220112 | 57 | 0 | 0.0 | 0.0 | 0.09 | 0.33 | 0.24 | 88 | 1014.7 |
| 20260904215538 | 57 | 0 | 0.0 | 0.0 | 0.14 | 0.34 | 0.24 | 87 | 1014.6 |
| 20260904215043 | 57 | 0 | 0.0 | 1.0 | 0.15 | 0.34 | 0.24 | 86 | 1014.4 |
| 20260904214552 | 57 | 0 | 0.0 | 1.0 | 0.15 | 0.34 | 0.24 | 85 | 1014.3 |
| 20260904214038 | 57 | 0 | 0.0 | 1.0 | 0.14 | 0.33 | 0.23 | 85 | 1014.3 |
| 20260904213542 | 57 | 0 | 0.0 | 1.0 | 0.14 | 0.33 | 0.23 | 85 | 1014.1 |
| 20260904213055 | 58 | 0 | 0.0 | 1.0 | 0.14 | 0.33 | 0.23 | 83 | 1014.1 |
| 20260904212541 | 58 | 0 | 0.0 | 1.0 | 0.13 | 0.32 | 0.22 | 84 | 1014.0 |
| 20260904212044 | 59 | 0 | 0.0 | 1.0 | 0.13 | 0.32 | 0.22 | 83 | 1014.0 |
| 20260904211558 | 59 | 0 | 0.0 | 3.0 | 0.13 | 0.32 | 0.22 | 82 | 1014.0 |
| 20260904211038 | 59 | 266 | 0.0 | 5.0 | 0.11 | 0.30 | 0.20 | 82 | 1014.0 |
| 20260904210538 | 60 | 0 | 1.0 | 5.0 | 0.08 | 0.27 | 0.17 | 80 | 1014.0 |
| 20260904210119 | 62 | 227 | 2.0 | 5.0 | 0.06 | 0.25 | 0.15 | 77 | 1014.1 |
| 20260904205538 | 63 | 205 | 2.0 | 5.0 | 0.01 | 0.20 | 0.10 | 73 | 1013.8 |
| 20260904205038 | 65 | 119 | 0.0 | 3.0 | 0.00 | 0.19 | 0.09 | 71 | 1013.6 |
| 20260904204557 | 66 | 0 | 0.0 | 0.0 | 0.00 | 0.19 | 0.09 | 70 | 1013.4 |
| 20260904204044 | 66 | 0 | 0.0 | 0.0 | 0.00 | 0.19 | 0.09 | 70 | 1013.4 |
| 20260904203541 | 66 | 0 | 0.0 | 0.0 | 0.00 | 0.19 | 0.09 | 68 | 1013.3 |
| 20260904203056 | 67 | 0 | 0.0 | 2.0 | 0.00 | 0.19 | 0.09 | 67 | 1013.2 |
| 20260904202541 | 67 | 0 | 0.0 | 2.0 | 0.00 | 0.19 | 0.09 | 68 | 1013.2 |
| 20260904202040 | 67 | 0 | 0.0 | 2.0 | 0.00 | 0.19 | 0.09 | 65 | 1013.2 |
| 20260904201554 | 67 | 0 | 0.0 | 2.0 | 0.00 | 0.19 | 0.09 | 67 | 1013.2 |
| 20260904201038 | 67 | 50 | 0.0 | 2.0 | 0.00 | 0.19 | 0.09 | 69 | 1013.1 |
| 20260904200541 | 67 | 50 | 0.0 | 2.0 | 0.00 | 0.19 | 0.09 | 71 | 1013.1 |
| 20260904200105 | 67 | 0 | 0.0 | 2.0 | 0.00 | 0.19 | 0.09 | 69 | 1013.1 |
| 20260904195540 | 66 | 0 | 0.0 | 2.0 | 0.00 | 0.20 | 0.09 | 72 | 1013.1 |
| 20260904195042 | 66 | 0 | 0.0 | 2.0 | 0.00 | 0.20 | 0.09 | 69 | 1013.2 |
| 20260904194603 | 66 | 0 | 0.0 | 3.0 | 0.00 | 0.20 | 0.09 | 68 | 1013.2 |
| 20260904194041 | 66 | 0 | 0.0 | 3.0 | 0.00 | 0.20 | 0.09 | 63 | 1013.3 |
| 20260904193541 | 67 | 0 | 1.0 | 3.0 | 0.00 | 0.20 | 0.09 | 68 | 1013.4 |
| 20260904193101 | 66 | 0 | 0.0 | 0.0 | 0.00 | 0.20 | 0.09 | 72 | 1013.3 |
| 20260904192541 | 65 | 0 | 0.0 | 0.0 | 0.00 | 0.20 | 0.09 | 71 | 1013.3 |
| 20260904192037 | 65 | 0 | 0.0 | 3.0 | 0.00 | 0.20 | 0.09 | 67 | 1013.3 |
| 20260904191554 | 66 | 0 | 0.0 | 7.0 | 0.00 | 0.20 | 0.09 | 62 | 1013.4 |
| 20260904191038 | 66 | 65 | 1.0 | 7.0 | 0.00 | 0.20 | 0.09 | 71 | 1013.3 |
| 20260904190538 | 66 | 288 | 1.0 | 4.0 | 0.00 | 0.20 | 0.09 | 65 | 1013.4 |
| 20260904190050 | 65 | 65 | 1.0 | 3.0 | 0.00 | 0.20 | 0.09 | 71 | 1013.4 |
| 20260904185538 | 64 | 0 | 0.0 | 5.0 | 0.00 | 0.21 | 0.09 | 73 | 1013.5 |
| 20260904185038 | 64 | 51 | 1.0 | 5.0 | 0.00 | 0.21 | 0.09 | 77 | 1013.7 |
| 20260904184607 | 63 | 150 | 0.0 | 3.0 | 0.00 | 0.21 | 0.09 | 74 | 1013.6 |
| 20260904184038 | 63 | 0 | 0.0 | 3.0 | 0.00 | 0.21 | 0.09 | 79 | 1013.6 |
| 20260904183538 | 63 | 59 | 1.0 | 3.0 | 0.00 | 0.21 | 0.09 | 77 | 1013.6 |
| 20260904183054 | 62 | 0 | 0.0 | 0.0 | 0.00 | 0.21 | 0.09 | 80 | 1013.5 |